Location: Drummondville
(45.8830°N, 72.4830°W)
Time: 21:56:54
(UTC-05:00)

ISS - Pass Details

Date: 10 November 2017
Orbit: 402 x 407 km, 51.6° (Epoch: 21 November)

Event Time Altitude Azimuth Distance (km) Brightness Sun altitude
Exits shadow 06:10:32 - 301° (WNW) 1,643 -1.4 -6.2°
Reaches altitude 10° 06:11:00 10° 303° (WNW) 1,458 -1.6 -6.1°
Maximum altitude 06:14:12 53° 22° (NNE) 501 -3.3 -5.6°
Drops below altitude 10° 06:17:24 10° 100° (E) 1,453 0.8 -5.0°
Sets 06:19:30 0° 106° (ESE) 2,311 2.9 -4.7°
